BAW47C LEBL-EGLL

Flight info

Callsign BAW47C
Flight time N/A
Altitude 34000
Route NATPI DCT EVNAM DCT AGN DCT SECHE DCT UVELI DCT CNA DCT MANAK DCT EPAPU DCT RINSO DCT EKRAS DCT REVTU DCT BOLRO UP87 ROXOG
Aircraft A320/M-SDE3FGHIRWY/LB1

Departure

Time 2026-05-05 11:02
Airport Josep Tarradellas Barcelona-El Prat Airport (LEBL)

Arrival

Time N/A
Airport London Heathrow Airport (EGLL)
Time Latitude Longitude Altitude Speed Heading
2026-05-05 10:34 41.30282 2.08057 21 ft 0 kts 308°
2026-05-05 10:48 41.30280 2.08059 21 ft 2 kts 308°
2026-05-05 10:49 41.30269 2.08077 23 ft 3 kts 308°
2026-05-05 10:49 41.30258 2.08096 23 ft 3 kts 308°
2026-05-05 10:49 41.30247 2.08114 23 ft 3 kts 308°
2026-05-05 10:49 41.30236 2.08133 22 ft 3 kts 308°
2026-05-05 10:50 41.30225 2.08151 23 ft 2 kts 303°
2026-05-05 10:50 41.30217 2.08171 23 ft 2 kts 276°
2026-05-05 10:50 41.30216 2.08193 21 ft 2 kts 252°
2026-05-05 10:51 41.30215 2.08192 21 ft 0 kts 252°
2026-05-05 10:52 41.30219 2.08207 19 ft 2 kts 252°
2026-05-05 10:52 41.30224 2.08227 22 ft 2 kts 245°
2026-05-05 10:53 41.30232 2.08245 22 ft 2 kts 241°
2026-05-05 10:53 41.30240 2.08264 22 ft 2 kts 241°
2026-05-05 10:53 41.30246 2.08284 21 ft 2 kts 253°
2026-05-05 10:53 41.30248 2.08291 21 ft 0 kts 253°
2026-05-05 10:54 41.30246 2.08285 20 ft 2 kts 250°
2026-05-05 10:55 41.30239 2.08264 21 ft 4 kts 245°
2026-05-05 10:55 41.30224 2.08225 19 ft 6 kts 242°
2026-05-05 10:55 41.30192 2.08184 18 ft 8 kts 197°
2026-05-05 10:55 41.30132 2.08206 17 ft 11 kts 149°
2026-05-05 10:56 41.30067 2.08247 19 ft 11 kts 155°
2026-05-05 10:56 41.29989 2.08293 19 ft 13 kts 156°
2026-05-05 10:56 41.29912 2.08341 24 ft 13 kts 154°
2026-05-05 10:56 41.29810 2.08403 20 ft 20 kts 156°
2026-05-05 10:57 41.29671 2.08487 16 ft 21 kts 156°
2026-05-05 10:57 41.29558 2.08555 18 ft 19 kts 155°
2026-05-05 10:57 41.29427 2.08633 16 ft 21 kts 155°
2026-05-05 10:57 41.29296 2.08712 18 ft 21 kts 155°
2026-05-05 10:58 41.29154 2.08798 17 ft 24 kts 155°
2026-05-05 10:58 41.29010 2.08885 17 ft 20 kts 157°
2026-05-05 10:58 41.28938 2.08949 16 ft 9 kts 110°
2026-05-05 10:58 41.28973 2.09038 16 ft 14 kts 60°
2026-05-05 10:59 41.29020 2.09178 18 ft 20 kts 69°
2026-05-05 10:59 41.29081 2.09369 18 ft 25 kts 65°
2026-05-05 10:59 41.29163 2.09600 17 ft 30 kts 65°
2026-05-05 10:59 41.29232 2.09797 17 ft 21 kts 65°
2026-05-05 11:00 41.29286 2.09943 18 ft 15 kts 59°
2026-05-05 11:00 41.29337 2.10078 17 ft 18 kts 68°
2026-05-05 11:00 41.29368 2.10209 15 ft 11 kts 97°
2026-05-05 11:00 41.29305 2.10280 13 ft 11 kts 158°
2026-05-05 11:01 41.29231 2.10307 14 ft 11 kts 195°
2026-05-05 11:01 41.29187 2.10227 16 ft 12 kts 246°
2026-05-05 11:01 41.29098 2.09965 21 ft 62 kts 245°
2026-05-05 11:01 41.28832 2.09173 17 ft 123 kts 246°
2026-05-05 11:02 41.28409 2.07953 56 ft 162 kts 246°
2026-05-05 11:02 41.27935 2.06653 705 ft 150 kts 240°
2026-05-05 11:02 41.27141 2.05820 1311 ft 150 kts 197°
2026-05-05 11:02 41.26111 2.05586 1718 ft 157 kts 192°
2026-05-05 11:03 41.24981 2.05331 1915 ft 177 kts 192°
2026-05-05 11:03 41.23695 2.05025 2220 ft 197 kts 192°
2026-05-05 11:03 41.22255 2.04686 2616 ft 214 kts 192°
2026-05-05 11:03 41.20796 2.04328 3300 ft 218 kts 194°
2026-05-05 11:04 41.19315 2.03880 4068 ft 218 kts 202°
2026-05-05 11:04 41.18063 2.02789 4840 ft 219 kts 229°
2026-05-05 11:04 41.17251 2.01054 5549 ft 224 kts 239°
2026-05-05 11:04 41.16398 1.99313 6275 ft 229 kts 232°
2026-05-05 11:05 41.15398 1.97632 6966 ft 233 kts 229°
2026-05-05 11:05 41.14366 1.95980 7813 ft 232 kts 230°
2026-05-05 11:05 41.13413 1.94269 8719 ft 228 kts 239°
2026-05-05 11:05 41.12833 1.92247 9293 ft 243 kts 256°
2026-05-05 11:06 41.12442 1.90049 10048 ft 245 kts 252°
2026-05-05 11:06 41.11954 1.87882 10819 ft 246 kts 250°
2026-05-05 11:06 41.11606 1.85645 11538 ft 252 kts 263°
2026-05-05 11:06 41.11775 1.83247 11883 ft 277 kts 281°
2026-05-05 11:07 41.12468 1.80718 11964 ft 306 kts 287°
2026-05-05 11:07 41.13334 1.78017 11951 ft 329 kts 295°
2026-05-05 11:07 41.14771 1.75592 11963 ft 341 kts 313°
2026-05-05 11:07 41.16754 1.73803 11966 ft 350 kts 330°
2026-05-05 11:08 41.18220 1.72895 11966 ft 352 kts 331°
2026-05-05 11:08 41.20441 1.71528 11959 ft 352 kts 330°
2026-05-05 11:08 41.22657 1.70156 11968 ft 352 kts 330°
2026-05-05 11:08 41.24874 1.68776 11965 ft 352 kts 330°
2026-05-05 11:09 41.27089 1.67397 11949 ft 352 kts 330°
2026-05-05 11:09 41.29316 1.66010 12157 ft 357 kts 330°
2026-05-05 11:09 41.31565 1.64611 12917 ft 358 kts 330°
2026-05-05 11:09 41.33924 1.63461 13605 ft 367 kts 344°
2026-05-05 11:10 41.36461 1.62853 14228 ft 372 kts 346°
2026-05-05 11:10 41.39027 1.62273 14849 ft 376 kts 346°
2026-05-05 11:10 41.41615 1.61701 15442 ft 379 kts 346°
2026-05-05 11:10 41.44231 1.61130 16009 ft 383 kts 345°
2026-05-05 11:11 41.46873 1.60552 16587 ft 386 kts 345°
2026-05-05 11:11 41.49522 1.59966 17178 ft 389 kts 344°
2026-05-05 11:11 41.52206 1.59371 17776 ft 392 kts 344°
2026-05-05 11:11 41.54910 1.58770 18345 ft 396 kts 344°
2026-05-05 11:12 41.57641 1.58160 18854 ft 400 kts 343°
2026-05-05 11:12 41.60392 1.57545 19390 ft 403 kts 343°
2026-05-05 11:12 41.63167 1.56922 19950 ft 406 kts 343°
2026-05-05 11:12 41.65959 1.56295 20487 ft 409 kts 343°
2026-05-05 11:13 41.68776 1.55663 21018 ft 412 kts 342°
2026-05-05 11:13 41.71609 1.55025 21541 ft 415 kts 342°
2026-05-05 11:13 41.74469 1.54382 22046 ft 418 kts 342°
2026-05-05 11:13 41.77343 1.53737 22603 ft 421 kts 342°
2026-05-05 11:14 41.80242 1.53086 23117 ft 424 kts 342°
2026-05-05 11:14 41.83163 1.52431 23621 ft 427 kts 341°
2026-05-05 11:14 41.86106 1.51768 24026 ft 430 kts 341°
2026-05-05 11:14 41.89029 1.51110 24425 ft 433 kts 341°
2026-05-05 11:15 41.92013 1.50437 24805 ft 436 kts 341°
2026-05-05 11:15 41.95016 1.49759 25180 ft 439 kts 341°
2026-05-05 11:15 41.98036 1.49075 25564 ft 442 kts 341°
2026-05-05 11:15 42.01077 1.48384 25918 ft 445 kts 341°
2026-05-05 11:16 42.04144 1.47686 26287 ft 448 kts 341°
2026-05-05 11:16 42.07226 1.46985 26656 ft 451 kts 341°
2026-05-05 11:16 42.10324 1.46282 27002 ft 453 kts 341°
2026-05-05 11:16 42.13443 1.45577 27335 ft 456 kts 341°
2026-05-05 11:17 42.16580 1.44868 27701 ft 459 kts 341°